[[{"header":{"parameterUnit":"m.s-1","parameterCategory":1,"la1":30.2991,"la2":30.254,"lo1":-89.0895,"lo2":-89.0444,"dy":0.0017,"dx":0.0017,"nx":28,"ny":28,"refTime":"2025-12-01T09:00:00:Z","depth":0,"parameterNumber":2,"parameterNumberName":"U-component_of_WINDS"},"data":[0,0,0,0,0,0,0,0,0,0,0,0,0,0,0,0,0,0,0,0,0,0,0,0,0,0,0,0,0,0,0,0,0,0,0,0,0,0,0,0,0,0,0,0,0,0,0,0,0,0,0,0,0,0,0,0,0,0,-1.4109,-1.4109,0,-1.4136,-1.4136,-1.4136,-1.4072,-1.407,-1.4068,-1.4066,-1.4096,-1.4099,-1.4101,0,0,0,0,0,0,0,0,0,0,0,0,0,-1.4003,-1.4006,-1.4109,-1.4109,-1.411,-1.4136,-1.4136,-1.4136,-1.4073,-1.407,-1.4068,-1.4065,-1.4095,-1.4098,-1.4102,0,0,0,0,0,0,0,0,0,0,0,0,0,-1.4042,-1.4006,-1.4109,-1.4081,-1.4079,-1.4136,-1.4136,-1.4136,-1.4073,-1.407,-1.4067,-1.4064,-1.4094,-1.4098,-1.4102,-1.4188,0,0,-1.4114,-1.4116,0,0,0,0,0,0,0,0,-1.404,-1.4046,-1.4085,-1.4083,-1.4081,-1.4097,-1.411,-1.4154,-1.4074,-1.4075,-1.4066,-1.4063,-1.4099,-1.4103,-1.4114,-1.4189,-1.4191,-1.4115,-1.4117,-1.4119,-1.412,0,0,0,0,0,0,0,-1.4037,-1.4044,-1.412,-1.4085,-1.4083,-1.4067,-1.4069,-1.4118,-1.4104,-1.4075,-1.407,-1.4074,-1.4097,-1.4111,-1.4115,-1.4191,-1.4115,-1.4118,-1.4121,-1.4122,-1.4335,-1.4338,0,0,0,0,0,0,-1.4038,-1.4042,-1.4119,-1.412,-1.4052,-1.4072,-1.4074,-1.4095,-1.4103,-1.4102,-1.4077,-1.4071,-1.4105,-1.411,-1.4115,-1.4215,-1.4119,-1.4123,-1.4125,-1.4332,-1.4336,-1.4339,0,0,0,0,0,0,-1.4036,-1.4045,-1.4118,-1.408,-1.4088,-1.4077,-1.4101,-1.4097,-1.411,-1.4105,-1.4102,-1.4093,-1.4103,-1.411,-1.417,-1.4215,-1.4124,-1.4128,-1.4328,-1.4333,-1.4337,-1.4415,0,0,0,0,0,0,-1.4033,-1.4045,-1.4078,-1.4081,-1.409,-1.4172,-1.4104,-1.41,-1.4117,-1.411,-1.4119,-1.4118,-1.4101,-1.4164,-1.4174,-1.4219,-1.4131,-1.4324,-1.433,-1.4336,-1.4409,-1.4422,-1.4434,0,0,0,0,0,-1.4029,-1.41,-1.408,-1.4089,-1.4131,-1.4175,-1.418,-1.4159,-1.4121,-1.4154,-1.415,-1.4117,-1.4208,-1.4171,-1.4181,-1.4228,-1.4321,-1.4328,-1.4335,-1.4403,-1.442,-1.4434,0,0,0,0,0,0,-1.4104,-1.41,-1.4078,-1.4151,-1.4164,-1.4164,-1.4204,-1.4177,-1.4201,-1.4194,-1.4167,-1.417,-1.4234,-1.4237,-1.4195,-1.431,-1.4258,-1.4268,-1.4306,-1.4322,-1.4334,-1.4332,-1.4135,0,0,0,0,0,-1.4129,-1.4164,-1.4159,-1.4224,-1.4231,-1.4217,-1.4235,-1.4217,-1.4229,-1.4235,-1.4235,-1.4248,-1.4279,-1.4301,-1.4329,-1.4408,-1.4409,-1.4446,-1.4458,-1.4469,-1.4477,-1.4517,-1.4533,-1.4363,-1.4363,-1.4363,0,0,-1.4181,-1.4183,-1.4207,-1.4239,-1.4246,-1.4283,-1.4222,-1.4264,-1.4291,-1.4241,-1.4297,-1.4298,-1.431,-1.438,-1.441,-1.4384,-1.4524,-1.4478,-1.4486,-1.4489,-1.4526,-1.4542,-1.4557,-1.4368,-1.4367,-1.4366,0,0,-1.4294,-1.43,-1.4353,-1.4361,-1.4372,-1.4362,-1.4375,-1.4378,-1.4376,-1.4431,-1.4394,-1.4425,-1.448,-1.449,-1.4503,-1.4616,-1.4586,-1.4626,-1.4692,-1.4731,-1.4744,-1.4756,-1.4795,-1.4809,-1.4635,-1.4635,-1.4635,0,-1.4358,-1.4411,-1.4385,-1.4429,-1.4443,-1.4397,-1.4451,-1.446,-1.4481,-1.4492,-1.4462,-1.4528,-1.4534,-1.4603,-1.463,-1.4642,-1.4655,-1.4625,-1.4744,-1.4756,-1.4766,-1.4803,-1.4818,-1.4639,-1.4639,-1.4638,-1.4638,0,-1.4488,-1.4525,-1.4567,-1.4586,-1.4605,-1.4654,-1.4634,-1.4657,-1.4637,-1.4629,-1.4684,-1.4689,-1.4717,-1.4732,-1.4714,-1.4798,-1.4781,-1.4748,-1.4696,-1.4787,-1.4821,-1.4835,-1.4646,-1.4644,-1.4643,-1.4642,0,0,-1.4651,-1.4652,-1.4668,-1.4674,-1.4681,-1.471,-1.4755,-1.4781,-1.4799,-1.4815,-1.4852,-1.4897,-1.4866,-1.488,-1.4862,-1.4896,-1.4983,-1.4858,-1.4858,-1.488,-1.5074,-1.5099,-1.5115,-1.4963,-1.4966,-1.4968,-1.5073,0,-1.4762,-1.4839,-1.4815,-1.4893,-1.4926,-1.4882,-1.4921,-1.493,-1.4923,-1.495,-1.4943,-1.4975,-1.4932,-1.4939,-1.4971,-1.4966,-1.5021,-1.4958,-1.4997,-1.4999,-1.4994,-1.5133,-1.516,-1.5259,-1.5086,-1.5088,-1.509,0,-1.4902,-1.4919,-1.5,-1.4998,-1.5011,-1.5047,-1.5067,-1.5093,-1.5101,-1.5094,-1.5108,-1.5082,-1.5126,-1.5073,-1.5132,-1.5089,-1.5104,-1.5103,-1.5106,-1.5109,-1.505,-1.5139,-1.529,-1.5304,-1.5111,-1.5109,-1.5108,0,-1.5011,-1.5055,-1.5108,-1.5115,-1.5115,-1.5141,-1.5142,-1.5147,-1.5163,-1.518,-1.519,-1.5213,-1.5225,-1.5243,-1.5224,-1.5187,-1.5286,-1.5231,-1.528,-1.5281,-1.5303,-1.5302,-1.5458,-1.5314,-1.5314,-1.5314,-1.5313,0,-1.5136,-1.5187,-1.5156,-1.5189,-1.5244,-1.5215,-1.5271,-1.5267,-1.5271,-1.5302,-1.5266,-1.5296,-1.5268,-1.5295,-1.5281,-1.5331,-1.5337,-1.5332,-1.5328,-1.5335,-1.5336,-1.5344,-1.5336,-1.5317,-1.5317,-1.5316,-1.5315,0,-1.5268,-1.5249,-1.5304,-1.5298,-1.5298,-1.5338,-1.5333,-1.5363,-1.5353,-1.5392,-1.54,-1.5384,-1.5413,-1.5395,-1.5427,-1.5416,-1.5482,-1.5468,-1.5479,-1.5475,-1.5524,-1.5519,-1.569,-1.5711,-1.5555,-1.5556,-1.5558,0,-1.5349,-1.5386,-1.5384,-1.5401,-1.5404,-1.5433,-1.5447,-1.542,-1.5437,-1.5447,-1.5475,-1.5502,-1.5521,-1.5571,-1.5562,-1.5585,-1.5571,-1.5629,-1.5575,-1.558,-1.557,-1.5568,-1.5571,-1.5641,-1.5642,-1.5644,-1.5645,0,-1.5494,-1.5482,-1.5505,-1.5523,-1.5541,-1.5555,-1.5565,-1.5582,-1.5554,-1.5575,-1.5604,-1.5619,-1.5649,-1.5675,-1.5693,-1.5695,-1.5665,-1.5662,-1.5674,-1.5682,-1.5686,-1.5683,-1.5508,-1.5659,-1.5657,-1.5656,-1.5656,-1.5655,-1.5602,-1.5632,-1.5634,-1.5659,-1.5663,-1.5673,-1.57,-1.5692,-1.5715,-1.5736,-1.5719,-1.5753,-1.5757,-1.5779,-1.5784,-1.581,-1.5786,-1.5805,-1.5809,-1.5814,-1.582,-1.5682,-1.5813,-1.5813,-1.5812,-1.5812,-1.5812,0,-1.5745,-1.5742,-1.5766,-1.578,-1.5799,-1.5768,-1.5777,-1.5796,-1.5826,-1.5832,-1.585,-1.5883,-1.5907,-1.5899,-1.592,-1.5943,-1.593,-1.5949,-1.5947,-1.5947,-1.584,-1.5827,-1.5959,-1.5959,-1.5959,-1.5959,-1.5959,-1.5959,-1.5821,-1.5869,-1.5857,-1.5906,-1.5904,-1.5935,-1.5943,-1.5952,-1.5956,-1.5993,-1.6012,-1.6006,-1.6006,-1.6026,-1.6047,-1.6044,-1.6053,-1.6078,-1.607,-1.597,-1.5955,-1.5941,-1.5928,-1.608,-1.608,-1.6174,-1.6175,-1.6176]},{"header":{"parameterUnit":"m.s-1","parameterCategory":1,"la1":30.2991,"la2":30.254,"lo1":-89.0895,"lo2":-89.0444,"dy":0.0017,"dx":0.0017,"nx":28,"ny":28,"refTime":"2025-12-01T09:00:00:Z","depth":0,"parameterNumber":3,"parameterNumberName":"V-component_of_WINDS"},"data":[0,0,0,0,0,0,0,0,0,0,0,0,0,0,0,0,0,0,0,0,0,0,0,0,0,0,0,0,0,0,0,0,0,0,0,0,0,0,0,0,0,0,0,0,0,0,0,0,0,0,0,0,0,0,0,0,0,0,-4.5393,-4.5394,0,-4.5523,-4.5524,-4.5526,-4.5501,-4.5498,-4.5496,-4.5494,-4.5621,-4.5627,-4.5632,0,0,0,0,0,0,0,0,0,0,0,0,0,-4.5116,-4.5121,-4.5393,-4.5395,-4.5396,-4.5523,-4.5524,-4.5526,-4.5501,-4.5498,-4.5495,-4.5493,-4.5619,-4.5626,-4.5633,0,0,0,0,0,0,0,0,0,0,0,0,0,-4.524,-4.5123,-4.5393,-4.5399,-4.5401,-4.5522,-4.5525,-4.5527,-4.5502,-4.5498,-4.5495,-4.5491,-4.5617,-4.5625,-4.5634,-4.5755,0,0,-4.5659,-4.5663,0,0,0,0,0,0,0,0,-4.5233,-4.525,-4.5396,-4.5399,-4.5401,-4.5492,-4.5474,-4.5603,-4.5503,-4.5463,-4.5494,-4.549,-4.5581,-4.5592,-4.5624,-4.5761,-4.5767,-4.566,-4.5665,-4.5668,-4.5671,0,0,0,0,0,0,0,-4.5225,-4.5245,-4.5444,-4.5399,-4.5401,-4.5393,-4.5407,-4.5498,-4.554,-4.5466,-4.5465,-4.5481,-4.5581,-4.5616,-4.5627,-4.5768,-4.566,-4.5667,-4.5672,-4.5675,-4.6008,-4.6012,0,0,0,0,0,0,-4.5215,-4.5238,-4.544,-4.5448,-4.5307,-4.5401,-4.5416,-4.5466,-4.5539,-4.5547,-4.5484,-4.5479,-4.5603,-4.5617,-4.5631,-4.5776,-4.5668,-4.5676,-4.5681,-4.6005,-4.6009,-4.6013,0,0,0,0,0,0,-4.5209,-4.5233,-4.5435,-4.5343,-4.5368,-4.541,-4.5466,-4.5471,-4.5505,-4.5552,-4.5559,-4.5512,-4.5601,-4.5619,-4.5724,-4.578,-4.568,-4.5688,-4.6,-4.6006,-4.6011,-4.6067,0,0,0,0,0,0,-4.5201,-4.5231,-4.528,-4.5344,-4.5373,-4.5528,-4.5469,-4.5476,-4.552,-4.5516,-4.558,-4.5587,-4.56,-4.5712,-4.5732,-4.5789,-4.5694,-4.5995,-4.6003,-4.601,-4.6061,-4.6074,-4.6086,0,0,0,0,0,-4.5191,-4.529,-4.5282,-4.5307,-4.5434,-4.5531,-4.5548,-4.5561,-4.5525,-4.5573,-4.5602,-4.5585,-4.5771,-4.5723,-4.5746,-4.5806,-4.5992,-4.6001,-4.6009,-4.6055,-4.6072,-4.6086,0,0,0,0,0,0,-4.5229,-4.5298,-4.5291,-4.5413,-4.5467,-4.5527,-4.5588,-4.5579,-4.5643,-4.5635,-4.5648,-4.5663,-4.5769,-4.5798,-4.5744,-4.5926,-4.5876,-4.5889,-4.5903,-4.5919,-4.5931,-4.5921,-4.5701,0,0,0,0,0,-4.5252,-4.5327,-4.5383,-4.5485,-4.5513,-4.5546,-4.5588,-4.5595,-4.565,-4.5672,-4.5709,-4.5762,-4.5831,-4.5877,-4.5944,-4.6065,-4.6077,-4.6118,-4.613,-4.6141,-4.6151,-4.6214,-4.6232,-4.6042,-4.6042,-4.6042,0,0,-4.53,-4.5347,-4.5393,-4.5494,-4.5536,-4.5611,-4.5565,-4.5647,-4.5701,-4.5684,-4.5785,-4.5814,-4.5873,-4.5986,-4.6037,-4.6013,-4.6207,-4.6152,-4.6159,-4.6165,-4.6225,-4.6243,-4.6259,-4.6048,-4.6047,-4.6046,0,0,-4.5424,-4.5469,-4.5557,-4.5601,-4.5666,-4.5687,-4.5708,-4.577,-4.5789,-4.5891,-4.5878,-4.5942,-4.6063,-4.6105,-4.6142,-4.6281,-4.6266,-4.6302,-4.6367,-4.6429,-4.6444,-4.6457,-4.6503,-4.652,-4.6314,-4.6314,-4.6314,0,-4.5474,-4.5589,-4.5604,-4.5687,-4.573,-4.5719,-4.5807,-4.5848,-4.5931,-4.596,-4.5932,-4.6082,-4.6122,-4.6242,-4.6276,-4.6308,-4.633,-4.6294,-4.6441,-4.6454,-4.6467,-4.6511,-4.6529,-4.6317,-4.6317,-4.6317,-4.6316,0,-4.5645,-4.5725,-4.5789,-4.587,-4.5921,-4.6006,-4.6031,-4.6081,-4.6082,-4.6105,-4.6207,-4.6254,-4.6329,-4.6359,-4.6361,-4.6479,-4.6462,-4.6438,-4.6387,-4.6488,-4.653,-4.6548,-4.6323,-4.6321,-4.632,-4.6319,0,0,-4.5797,-4.5885,-4.5908,-4.5943,-4.6014,-4.6074,-4.6157,-4.6232,-4.6273,-4.633,-4.6398,-4.65,-4.6478,-4.652,-4.6526,-4.658,-4.6683,-4.6549,-4.655,-4.657,-4.6813,-4.6829,-4.6849,-4.6675,-4.6678,-4.6681,-4.6807,0,-4.5926,-4.6075,-4.609,-4.6222,-4.6293,-4.6283,-4.6355,-4.6405,-4.6428,-4.6491,-4.6516,-4.6587,-4.6553,-4.6578,-4.6632,-4.6659,-4.6732,-4.6651,-4.6735,-4.6738,-4.6718,-4.6871,-4.6889,-4.7006,-4.6824,-4.6827,-4.6829,0,-4.6096,-4.6158,-4.6298,-4.6356,-4.6387,-4.6452,-4.652,-4.6581,-4.6635,-4.6648,-4.6695,-4.6694,-4.6777,-4.6725,-4.6837,-4.6782,-4.6817,-4.6836,-4.6841,-4.6847,-4.6788,-4.6879,-4.7044,-4.706,-4.6855,-4.6853,-4.6851,0,-4.6188,-4.6308,-4.6406,-4.6437,-4.6508,-4.6554,-4.6585,-4.6636,-4.668,-4.6739,-4.6766,-4.6834,-4.6871,-4.6922,-4.6938,-4.6899,-4.7049,-4.6999,-4.7059,-4.7059,-4.709,-4.7087,-4.726,-4.7117,-4.7117,-4.7116,-4.7116,0,-4.6329,-4.6414,-4.6448,-4.6509,-4.6603,-4.6618,-4.671,-4.6739,-4.6784,-4.6848,-4.6843,-4.6902,-4.6921,-4.6983,-4.6996,-4.7086,-4.7103,-4.7113,-4.7115,-4.7113,-4.7111,-4.7134,-4.7125,-4.7121,-4.712,-4.7119,-4.7118,0,-4.6448,-4.6475,-4.6581,-4.6639,-4.6656,-4.6722,-4.6771,-4.6827,-4.685,-4.693,-4.695,-4.6984,-4.7057,-4.7078,-4.7165,-4.7174,-4.7278,-4.7274,-4.726,-4.7259,-4.7317,-4.731,-4.7509,-4.7534,-4.7377,-4.7379,-4.738,0,-4.6535,-4.66,-4.6665,-4.6708,-4.6741,-4.6811,-4.6855,-4.6872,-4.6918,-4.6984,-4.7032,-4.7104,-4.7162,-4.7278,-4.7309,-4.7374,-4.737,-4.7435,-4.738,-4.7374,-4.7368,-4.7363,-4.7368,-4.7445,-4.7446,-4.7448,-4.7449,0,-4.6685,-4.6694,-4.6759,-4.6828,-4.6881,-4.6936,-4.6989,-4.7024,-4.7048,-4.7099,-4.7174,-4.7219,-4.7308,-4.7378,-4.7444,-4.7474,-4.7464,-4.7466,-4.7483,-4.748,-4.7468,-4.7472,-4.7285,-4.7461,-4.746,-4.7459,-4.7458,-4.7458,-4.6788,-4.6844,-4.6899,-4.697,-4.7012,-4.7061,-4.7116,-4.7146,-4.7209,-4.7283,-4.7289,-4.7369,-4.7419,-4.7508,-4.7541,-4.7602,-4.7582,-4.7608,-4.7614,-4.7619,-4.7622,-4.746,-4.7614,-4.7614,-4.7614,-4.7613,-4.7613,0,-4.6935,-4.697,-4.7036,-4.7109,-4.7165,-4.7154,-4.7211,-4.7257,-4.7328,-4.7377,-4.7434,-4.7518,-4.7586,-4.7623,-4.769,-4.7731,-4.7728,-4.7748,-4.7743,-4.775,-4.7637,-4.7615,-4.7749,-4.7749,-4.7749,-4.7749,-4.7749,-4.7749,-4.7018,-4.7112,-4.7128,-4.7241,-4.7275,-4.7354,-4.7387,-4.7431,-4.747,-4.7565,-4.7621,-4.7645,-4.7689,-4.7758,-4.7819,-4.7828,-4.7851,-4.7872,-4.7878,-4.7772,-4.7758,-4.7745,-4.7723,-4.7878,-4.7878,-4.7986,-4.7987,-4.7987]}]]